Time,TemperatureF,DewpointF,PressureIn,WindDirection,WindDirectionDegrees,WindSpeedMPH,WindSpeedGustMPH,Humidity,HourlyPrecipIn,Conditions,Clouds,dailyrainin,SolarRadiationWatts/m^2,SoftwareType,DateUTC
2013-06-29 00:00:00,81.0,69.0,-100.00,North,352,1.0,-999.0,66,0.00,,,0.00,0.000000,,2013-06-29 05:00:00,
2013-06-29 00:41:00,81.0,69.0,-100.00,North,352,1.0,-999.0,66,0.00,,,0.00,0.000000,,2013-06-29 05:41:00,
2013-06-29 00:52:00,81.0,69.0,-100.00,North,352,1.0,-999.0,66,0.00,,,0.00,0.000000,,2013-06-29 05:52:00,
2013-06-29 01:00:00,76.0,65.0,-100.00,SE,126,0.0,-999.0,70,0.00,,,0.00,0.000000,,2013-06-29 06:00:00,
2013-06-29 01:22:00,76.0,65.0,-100.00,SE,126,0.0,-999.0,70,0.00,,,0.00,0.000000,,2013-06-29 06:22:00,
2013-06-29 01:33:00,76.0,65.0,-100.00,SE,126,0.0,-999.0,70,0.00,,,0.00,0.000000,,2013-06-29 06:33:00,
2013-06-29 01:43:00,76.0,65.0,-100.00,SE,126,0.0,-999.0,70,0.00,,,0.00,0.000000,,2013-06-29 06:43:00,
2013-06-29 01:53:00,76.0,65.0,-100.00,SE,126,0.0,-999.0,70,0.00,,,0.00,0.000000,,2013-06-29 06:53:00,
2013-06-29 02:00:00,74.0,66.0,-100.00,SSE,167,1.0,-999.0,76,0.00,,,0.00,0.000000,,2013-06-29 07:00:00,
2013-06-29 02:22:00,74.0,66.0,-100.00,SSE,167,1.0,-999.0,76,0.00,,,0.00,0.000000,,2013-06-29 07:22:00,
2013-06-29 02:33:00,74.0,66.0,-100.00,SSE,167,1.0,-999.0,76,0.00,,,0.00,0.000000,,2013-06-29 07:33:00,
2013-06-29 02:43:00,74.0,66.0,-100.00,SSE,167,1.0,-999.0,76,0.00,,,0.00,0.000000,,2013-06-29 07:43:00,
2013-06-29 02:53:00,74.0,66.0,-100.00,SSE,167,1.0,-999.0,76,0.00,,,0.00,0.000000,,2013-06-29 07:53:00,
2013-06-29 03:00:00,73.0,63.0,-100.00,WNW,287,1.0,-999.0,70,0.00,,,0.00,0.000000,,2013-06-29 08:00:00,
2013-06-29 03:22:00,73.0,63.0,-100.00,WNW,287,1.0,-999.0,70,0.00,,,0.00,0.000000,,2013-06-29 08:22:00,
2013-06-29 03:33:00,73.0,63.0,-100.00,WNW,287,1.0,-999.0,70,0.00,,,0.00,0.000000,,2013-06-29 08:33:00,
2013-06-29 03:43:00,73.0,63.0,-100.00,WNW,287,1.0,-999.0,70,0.00,,,0.00,0.000000,,2013-06-29 08:43:00,
2013-06-29 03:52:00,73.0,63.0,-100.00,WNW,287,1.0,-999.0,70,0.00,,,0.00,0.000000,,2013-06-29 08:52:00,
2013-06-29 04:00:00,72.0,63.0,-100.00,WNW,285,2.0,-999.0,74,0.00,,,0.00,0.000000,,2013-06-29 09:00:00,
2013-06-29 04:22:00,72.0,63.0,-100.00,WNW,285,2.0,-999.0,74,0.00,,,0.00,0.000000,,2013-06-29 09:22:00,
2013-06-29 04:33:00,72.0,63.0,-100.00,WNW,285,2.0,-999.0,74,0.00,,,0.00,0.000000,,2013-06-29 09:33:00,
2013-06-29 04:42:00,72.0,63.0,-100.00,WNW,285,2.0,-999.0,74,0.00,,,0.00,0.000000,,2013-06-29 09:42:00,
2013-06-29 04:53:00,72.0,63.0,-100.00,WNW,285,2.0,-999.0,74,0.00,,,0.00,0.000000,,2013-06-29 09:53:00,
2013-06-29 05:00:00,70.0,62.0,-100.00,West,279,1.0,-999.0,76,0.00,,,0.00,0.000000,,2013-06-29 10:00:00,
2013-06-29 05:22:00,70.0,62.0,-100.00,West,279,1.0,-999.0,76,0.00,,,0.00,0.000000,,2013-06-29 10:22:00,
2013-06-29 05:33:00,70.0,62.0,-100.00,West,279,1.0,-999.0,76,0.00,,,0.00,0.000000,,2013-06-29 10:33:00,
2013-06-29 05:43:00,70.0,62.0,-100.00,West,279,1.0,-999.0,76,0.00,,,0.00,0.000000,,2013-06-29 10:43:00,
2013-06-29 05:53:00,70.0,62.0,-100.00,West,279,1.0,-999.0,76,0.00,,,0.00,0.000000,,2013-06-29 10:53:00,
2013-06-29 06:00:00,69.0,61.0,-100.00,WNW,287,3.0,-999.0,74,0.00,,,0.00,0.000000,,2013-06-29 11:00:00,
2013-06-29 06:23:00,69.0,61.0,-100.00,WNW,287,3.0,-999.0,74,0.00,,,0.00,0.000000,,2013-06-29 11:23:00,
2013-06-29 06:33:00,69.0,61.0,-100.00,WNW,287,3.0,-999.0,74,0.00,,,0.00,0.000000,,2013-06-29 11:33:00,
2013-06-29 06:43:00,69.0,61.0,-100.00,WNW,287,3.0,-999.0,74,0.00,,,0.00,0.000000,,2013-06-29 11:43:00,
2013-06-29 06:53:00,69.0,61.0,-100.00,WNW,287,3.0,-999.0,74,0.00,,,0.00,0.000000,,2013-06-29 11:53:00,
2013-06-29 07:00:00,69.0,60.0,-100.00,WNW,291,4.0,-999.0,73,0.00,,,0.00,16.000000,,2013-06-29 12:00:00,
2013-06-29 07:22:00,69.0,60.0,-100.00,WNW,291,4.0,-999.0,73,0.00,,,0.00,16.000000,,2013-06-29 12:22:00,
2013-06-29 07:34:00,69.0,60.0,-100.00,WNW,291,4.0,-999.0,73,0.00,,,0.00,16.000000,,2013-06-29 12:34:00,
2013-06-29 07:43:00,69.0,60.0,-100.00,WNW,291,4.0,-999.0,73,0.00,,,0.00,16.000000,,2013-06-29 12:43:00,
2013-06-29 07:53:00,69.0,60.0,-100.00,WNW,291,4.0,-999.0,73,0.00,,,0.00,16.000000,,2013-06-29 12:53:00,
2013-06-29 08:00:00,70.0,60.0,-100.00,WNW,287,4.0,-999.0,71,0.00,,,0.00,56.000000,,2013-06-29 13:00:00,
2013-06-29 08:23:00,70.0,60.0,-100.00,WNW,287,4.0,-999.0,71,0.00,,,0.00,56.000000,,2013-06-29 13:23:00,
2013-06-29 08:34:00,70.0,60.0,-100.00,WNW,287,4.0,-999.0,71,0.00,,,0.00,56.000000,,2013-06-29 13:34:00,
2013-06-29 08:43:00,70.0,60.0,-100.00,WNW,287,4.0,-999.0,71,0.00,,,0.00,56.000000,,2013-06-29 13:43:00,
2013-06-29 08:53:00,70.0,60.0,-100.00,WNW,287,4.0,-999.0,71,0.00,,,0.00,56.000000,,2013-06-29 13:53:00,
2013-06-29 09:00:00,77.0,59.0,-100.00,WNW,287,4.0,-999.0,54,0.00,,,0.00,308.000000,,2013-06-29 14:00:00,
2013-06-29 09:23:00,77.0,59.0,-100.00,WNW,287,4.0,-999.0,54,0.00,,,0.00,308.000000,,2013-06-29 14:23:00,
2013-06-29 09:34:00,77.0,59.0,-100.00,WNW,287,4.0,-999.0,54,0.00,,,0.00,308.000000,,2013-06-29 14:34:00,
2013-06-29 09:45:00,77.0,59.0,-100.00,WNW,287,4.0,-999.0,54,0.00,,,0.00,308.000000,,2013-06-29 14:45:00,
2013-06-29 09:53:00,77.0,59.0,-100.00,WNW,287,4.0,-999.0,54,0.00,,,0.00,308.000000,,2013-06-29 14:53:00,
2013-06-29 10:00:00,79.0,59.0,-100.00,NW,324,6.0,-999.0,51,0.00,,,0.00,504.000000,,2013-06-29 15:00:00,
2013-06-29 10:22:00,79.0,59.0,-100.00,NW,324,6.0,-999.0,51,0.00,,,0.00,504.000000,,2013-06-29 15:22:00,
2013-06-29 10:33:00,79.0,59.0,-100.00,NW,324,6.0,-999.0,51,0.00,,,0.00,504.000000,,2013-06-29 15:33:00,
2013-06-29 10:42:00,79.0,59.0,-100.00,NW,324,6.0,-999.0,51,0.00,,,0.00,504.000000,,2013-06-29 15:42:00,
2013-06-29 10:53:00,79.0,59.0,-100.00,NW,324,6.0,-999.0,51,0.00,,,0.00,504.000000,,2013-06-29 15:53:00,
2013-06-29 12:00:00,84.0,51.0,-100.00,NNW,341,11.0,-999.0,33,0.00,,,0.00,839.000000,,2013-06-29 17:00:00,
2013-06-29 12:23:00,84.0,51.0,-100.00,NNW,341,11.0,-999.0,33,0.00,,,0.00,839.000000,,2013-06-29 17:23:00,
2013-06-29 12:34:00,84.0,51.0,-100.00,NNW,341,11.0,-999.0,33,0.00,,,0.00,839.000000,,2013-06-29 17:34:00,
2013-06-29 12:42:00,84.0,51.0,-100.00,NNW,341,11.0,-999.0,33,0.00,,,0.00,839.000000,,2013-06-29 17:42:00,
2013-06-29 12:53:00,84.0,51.0,-100.00,NNW,341,11.0,-999.0,33,0.00,,,0.00,839.000000,,2013-06-29 17:53:00,
2013-06-29 13:22:00,85.0,53.0,-100.00,NNW,338,12.0,-999.0,33,0.00,,,0.00,894.000000,,2013-06-29 18:22:00,
2013-06-29 13:34:00,85.0,53.0,-100.00,NNW,338,12.0,-999.0,33,0.00,,,0.00,894.000000,,2013-06-29 18:34:00,
2013-06-29 13:43:00,85.0,53.0,-100.00,NNW,338,12.0,-999.0,33,0.00,,,0.00,894.000000,,2013-06-29 18:43:00,
2013-06-29 14:00:00,86.0,49.0,-100.00,NNW,342,14.0,-999.0,28,0.00,,,0.00,821.000000,,2013-06-29 19:00:00,
2013-06-29 14:43:00,86.0,49.0,-100.00,NNW,342,14.0,-999.0,28,0.00,,,0.00,821.000000,,2013-06-29 19:43:00,
2013-06-29 14:54:00,86.0,49.0,-100.00,NNW,342,14.0,-999.0,28,0.00,,,0.00,821.000000,,2013-06-29 19:54:00,
2013-06-29 16:00:00,88.0,51.0,-100.00,NW,324,13.0,-999.0,29,0.00,,,0.00,717.000000,,2013-06-29 21:00:00,
2013-06-29 17:00:00,88.0,55.0,-100.00,NNW,337,10.0,-999.0,33,0.00,,,0.00,622.000000,,2013-06-29 22:00:00,
2013-06-29 17:43:00,88.0,55.0,-100.00,NNW,337,10.0,-999.0,33,0.00,,,0.00,622.000000,,2013-06-29 22:43:00,
2013-06-29 17:53:00,88.0,55.0,-100.00,NNW,337,10.0,-999.0,33,0.00,,,0.00,622.000000,,2013-06-29 22:53:00,
2013-06-29 18:00:00,88.0,53.0,-100.00,NNW,339,10.0,-999.0,31,0.00,,,0.00,404.000000,,2013-06-29 23:00:00,
2013-06-29 18:23:00,88.0,53.0,-100.00,NNW,339,10.0,-999.0,31,0.00,,,0.00,404.000000,,2013-06-29 23:23:00,
2013-06-29 18:34:00,88.0,53.0,-100.00,NNW,339,10.0,-999.0,31,0.00,,,0.00,404.000000,,2013-06-29 23:34:00,
2013-06-29 18:43:00,88.0,53.0,-100.00,NNW,339,10.0,-999.0,31,0.00,,,0.00,404.000000,,2013-06-29 23:43:00,
2013-06-29 18:53:00,88.0,53.0,-100.00,NNW,339,10.0,-999.0,31,0.00,,,0.00,404.000000,,2013-06-29 23:53:00,
2013-06-29 19:00:00,88.0,51.0,-100.00,North,352,9.0,-999.0,28,0.00,,,0.00,393.000000,,2013-06-30 00:00:00,
2013-06-29 19:22:00,88.0,51.0,-100.00,North,352,9.0,-999.0,28,0.00,,,0.00,393.000000,,2013-06-30 00:22:00,
2013-06-29 19:33:00,88.0,51.0,-100.00,North,352,9.0,-999.0,28,0.00,,,0.00,393.000000,,2013-06-30 00:33:00,
2013-06-29 19:43:00,88.0,51.0,-100.00,North,352,9.0,-999.0,28,0.00,,,0.00,393.000000,,2013-06-30 00:43:00,
2013-06-29 19:52:00,88.0,51.0,-100.00,North,352,9.0,-999.0,28,0.00,,,0.00,393.000000,,2013-06-30 00:52:00,
2013-06-29 20:22:00,87.0,49.0,-100.00,North,350,7.0,-999.0,27,0.00,,,0.00,227.000000,,2013-06-30 01:22:00,
2013-06-29 21:00:00,84.0,60.0,-100.00,NNW,347,3.0,-999.0,44,0.00,,,0.00,54.000000,,2013-06-30 02:00:00,
2013-06-29 21:24:00,84.0,60.0,-100.00,NNW,347,3.0,-999.0,44,0.00,,,0.00,54.000000,,2013-06-30 02:24:00,
2013-06-29 21:33:00,84.0,60.0,-100.00,NNW,347,3.0,-999.0,44,0.00,,,0.00,54.000000,,2013-06-30 02:33:00,
2013-06-29 21:43:00,84.0,60.0,-100.00,NNW,347,3.0,-999.0,44,0.00,,,0.00,54.000000,,2013-06-30 02:43:00,
2013-06-29 21:53:00,84.0,60.0,-100.00,NNW,347,3.0,-999.0,44,0.00,,,0.00,54.000000,,2013-06-30 02:53:00,
2013-06-29 22:00:00,81.0,55.0,-100.00,North,2,4.0,-999.0,41,0.00,,,0.00,0.000000,,2013-06-30 03:00:00,
2013-06-29 22:23:00,81.0,55.0,-100.00,North,2,4.0,-999.0,41,0.00,,,0.00,0.000000,,2013-06-30 03:23:00,
2013-06-29 22:33:00,81.0,55.0,-100.00,North,2,4.0,-999.0,41,0.00,,,0.00,0.000000,,2013-06-30 03:33:00,
2013-06-29 22:43:00,81.0,55.0,-100.00,North,2,4.0,-999.0,41,0.00,,,0.00,0.000000,,2013-06-30 03:43:00,
2013-06-29 22:53:00,81.0,55.0,-100.00,North,2,4.0,-999.0,41,0.00,,,0.00,0.000000,,2013-06-30 03:53:00,
2013-06-29 23:00:00,78.0,55.0,-100.00,North,351,3.0,-999.0,44,0.00,,,0.00,0.000000,,2013-06-30 04:00:00,
2013-06-29 23:22:00,78.0,55.0,-100.00,North,351,3.0,-999.0,44,0.00,,,0.00,0.000000,,2013-06-30 04:22:00,
2013-06-29 23:33:00,78.0,55.0,-100.00,North,351,3.0,-999.0,44,0.00,,,0.00,0.000000,,2013-06-30 04:33:00,
2013-06-29 23:43:00,78.0,55.0,-100.00,North,351,3.0,-999.0,44,0.00,,,0.00,0.000000,,2013-06-30 04:43:00,
2013-06-29 23:53:00,78.0,55.0,-100.00,North,351,3.0,-999.0,44,0.00,,,0.00,0.000000,,2013-06-30 04:53:00,